STARLINK-36922, 68123

Orbit data source: Space-Track

STARLINK-36922, 68123 is a payload satellite owned by SpaceX/Seattle (US) in SSO that was launched on Sun, 08 Mar 2026 UTC via an FALCON 9 launch vehicle from the Air Force Western Test Range (AFWTR). Payload-class satellites include a variety of spacecraft equipped with specific instruments for various scientific and technological missions. These include communications satellites like Starlink; space stations such as the ISS; scientific satellites like the Hubble; Earth observation satellites from companies like Planet Labs, Umbra, and HawkEye 360; GPS; miniature CubeSats for education and research; and military/defense satellites.

Not visible in the next 10 days
Identifier
68123, 2026-044Y
Orbit
SSO
Country
Flag of USUS
Related business
Manufacturer
SpaceX/Seattle
Mission
Operational Commercial Communications
Bus & Motor
STARLINK V2MO, Unknown motor
Mass
575 kg wet, ~530 kg dry
Launch date (UTC)
2026-03-08 (6 months ago)
Launch vehicle
FALCON 9
Launch site
Air Force Western Test Range (AFWTR)
Object type
Payload
Rocket body
Debris
Shape & HBR
Box + 1 Pan, 17.7 m
Radar Cross Section
41.120 m², Large (>1 m²)

Expand to show TLE details & history
Last TLE update: 5 hours ago

TLE from 5 hours ago
0 STARLINK-36922
1 68123U 26044Y   26247.19610492  .00013674  00000-0  42505-3 0  9999
2 68123  97.2849 206.4440 0001719  96.8862 263.2577 15.33448123 28947
Epoch: 2026-09-04T04:42Z
TLE epoch observation values (Epoch: 2026-09-04T04:42:23.465Z)
Latitude
0.00007°
Longitude
152.52282°
Altitude
468.784 km
Speed
7.632 km/s
True Right ascension
13h 45m 46s
True Declination
0° 00' 00"
Sunlit
Object was in daylight at epoch
Visualization orbit readout
Latitude
Unknown
Longitude
Unknown
Altitude
Unknown
Speed
Unknown
Apparent Right ascension
Unknown
Apparent Declination
Unknown
Sunlit
N/A
Visualization observer readout
Local Sidereal Time
01:56:53
Azimuth
Unknown
Elevation
Unknown
Doppler factor
Unknown
Orbital elements
Apogee altitude
463.653 km
Perigee altitude
461.301 km
Semi-major axis
6,840.614 km
Eccentricity
0.00017
Inclination
97.2849°
RAAN
206.444°
Arg. of periapsis
96.8862°
True anomaly
263.23814°
Mean anomaly
263.2577°
Eccentric anomaly
263.24792°
Mean motion
3.83619 °/min
Orbital period
93.84 mins
BSTAR
0.00042505
Loading maneuver chart data...
Computing Atmospheric mass density...
Loading historical data...
Loading historical data...
Loading historical data...
Loading historical data...
Loading historical data...
Loading historical data...
Loading historical data...

Documentation

Showing up to 5 results
|